sat.trackr.live / text

‹ back to catalog

STARLINK-35390

NORAD 65796 · 2025-218F

PAYLOAD ACTIVE UNKNOWN

§ Identity

Operator
Country
US
Launch date
2025-09-26
Launch site
AFWTR
Launch vehicle
Mass (kg)
RCS (m²)

Purposes: comms

External: N2YO · Heavens-Above · Gunter

§ Orbital elements

Epoch: 2026-05-25T03:07:13.632960Z

Period
95.64 min
Inclination
97.4493°
Eccentricity
0.0002550
Mean motion
15.05655032 rev/d
Perigee alt
547.7 km
Apogee alt
551.3 km
Semi-major
6,927.6 km
B*
2.3039e-4
RAAN
7.9502°
Arg perigee
85.5473°
Mean anomaly
274.6045°
Rev number
3,647

§ Raw data

STARLINK-353901 65796U 25218F   26145.13001890  .00003268  00000+0  23039-3 0  99992 65796  97.4493   7.9502 0002550  85.5473 274.6045 15.05655032 36478

JSON: /api/v1/satellites/65796 · /tle

For live sub-satellite position, see the globe view (requires WebGL).

§ Visibility from observer

Set your observer location to see the next 7 days of passes ≥ 10°. The values pass through the URL so the page stays shareable.

No JS? Fill the form by hand. The geolocation button needs JavaScript.